User: anonymous   Login
Location: Luz Observatory
(34.5000°N, 117.2833°W)
Time: 04:53:58
(UTC-07:00)
Language:

Cosmos 1452 Rocket - Orbit

View from above orbital plane
View from above orbital plane
View from above satellite
View from above satellite

Ground track
Ground track

The orbit data is extracted from the following two-line orbital elements,

1 13992U 83031B   15142.80241674  .00000147  00000-0  59553-4 0  9997
2 13992 074.0527 314.2896 0004386 130.1621 330.0625 14.35940604680233
Epoch (UTC): 22 May 2015 19:15:28
Eccentricity: 0.0004386
inclination: 74.0527°
perigee height: 769 km
apogee height: 775 km
right ascension of ascending node: 314.2896°
argument of perigee: 130.1621°
revolutions per day: 14.35940604
mean anomaly at epoch: 330.0625°
orbit number at epoch: 68023

The dashed part of the orbit path shows where the satellite is in the earth's shadow,  

DLR